Year,Month,Day,Hour,Minute,Value (Times are PST for temperature in C)
2016,08,13,00,00,16.80
2016,08,13,00,01,16.70
2016,08,13,00,02,16.60
2016,08,13,00,03,16.50
2016,08,13,00,04,16.40
2016,08,13,00,05,16.40
2016,08,13,00,06,16.30
2016,08,13,00,07,16.30
2016,08,13,00,08,16.30
2016,08,13,00,09,16.20
2016,08,13,00,10,16.20
2016,08,13,00,11,16.20
2016,08,13,00,12,16.20
2016,08,13,00,13,16.20
2016,08,13,00,14,16.20
2016,08,13,00,15,16.20
2016,08,13,00,16,16.20
2016,08,13,00,17,16.30
2016,08,13,00,18,16.30
2016,08,13,00,19,16.30
2016,08,13,00,20,16.40
2016,08,13,00,21,16.40
2016,08,13,00,22,16.40
2016,08,13,00,23,16.40
2016,08,13,00,24,16.40
2016,08,13,00,25,16.40
2016,08,13,00,26,16.40
2016,08,13,00,27,16.40
2016,08,13,00,28,16.40
2016,08,13,00,29,16.30
2016,08,13,00,30,16.30
2016,08,13,00,31,16.30
2016,08,13,00,32,16.30
2016,08,13,00,33,16.30
2016,08,13,00,34,16.40
2016,08,13,00,35,16.40
2016,08,13,00,36,16.40
2016,08,13,00,37,16.50
2016,08,13,00,38,16.60
2016,08,13,00,39,16.60
2016,08,13,00,40,16.60
2016,08,13,00,41,16.70
2016,08,13,00,42,16.70
2016,08,13,00,43,16.70
2016,08,13,00,44,16.70
2016,08,13,00,45,16.70
2016,08,13,00,46,16.70
2016,08,13,00,47,16.70
2016,08,13,00,48,16.70
2016,08,13,00,49,16.70
2016,08,13,00,50,16.70
2016,08,13,00,51,16.80
2016,08,13,00,52,16.80
2016,08,13,00,53,16.80
2016,08,13,00,54,16.90
2016,08,13,00,55,16.90
2016,08,13,00,56,16.90
2016,08,13,00,57,16.90
2016,08,13,00,58,16.90
2016,08,13,00,59,16.90
2016,08,13,01,00,16.90
2016,08,13,01,01,16.90
2016,08,13,01,02,16.90
2016,08,13,01,03,16.90
2016,08,13,01,04,16.90
2016,08,13,01,05,17.00
2016,08,13,01,06,17.00
2016,08,13,01,07,17.00
2016,08,13,01,08,16.90
2016,08,13,01,09,16.90
2016,08,13,01,10,16.80
2016,08,13,01,11,16.70
2016,08,13,01,12,16.70
2016,08,13,01,13,16.70
2016,08,13,01,14,16.70
2016,08,13,01,15,16.70
2016,08,13,01,16,16.70
2016,08,13,01,17,16.70
2016,08,13,01,18,16.60
2016,08,13,01,19,16.60
2016,08,13,01,20,16.60
2016,08,13,01,21,16.60
2016,08,13,01,22,16.60
2016,08,13,01,23,16.60
2016,08,13,01,24,16.70
2016,08,13,01,25,16.70
2016,08,13,01,26,16.70
2016,08,13,01,27,16.70
2016,08,13,01,28,16.70
2016,08,13,01,29,16.70
2016,08,13,01,30,16.70
2016,08,13,01,31,16.70
2016,08,13,01,32,16.70
2016,08,13,01,33,16.70
2016,08,13,01,34,16.70
2016,08,13,01,35,16.70
2016,08,13,01,36,16.70
2016,08,13,01,37,16.70
2016,08,13,01,38,16.70
2016,08,13,01,39,16.70
2016,08,13,01,40,16.70
2016,08,13,01,41,16.70
2016,08,13,01,42,16.70
2016,08,13,01,43,16.80
2016,08,13,01,44,16.80
2016,08,13,01,45,16.80
2016,08,13,01,46,16.80
2016,08,13,01,47,16.80
2016,08,13,01,48,16.80
2016,08,13,01,49,16.80
2016,08,13,01,50,16.80
2016,08,13,01,51,16.90
2016,08,13,01,52,16.90
2016,08,13,01,53,16.90
2016,08,13,01,54,16.90
2016,08,13,01,55,16.90
2016,08,13,01,56,16.90
2016,08,13,01,57,16.90
2016,08,13,01,58,16.80
2016,08,13,01,59,16.80
2016,08,13,02,00,16.70
2016,08,13,02,01,16.70
2016,08,13,02,02,16.70
2016,08,13,02,03,16.70
2016,08,13,02,04,16.70
2016,08,13,02,05,16.70
2016,08,13,02,06,16.70
2016,08,13,02,07,16.60
2016,08,13,02,08,16.60
2016,08,13,02,09,16.60
2016,08,13,02,10,16.60
2016,08,13,02,11,16.60
2016,08,13,02,12,16.60
2016,08,13,02,13,16.60
2016,08,13,02,14,16.60
2016,08,13,02,15,16.60
2016,08,13,02,16,16.60
2016,08,13,02,17,16.60
2016,08,13,02,18,16.60
2016,08,13,02,19,16.60
2016,08,13,02,20,16.70
2016,08,13,02,21,16.70
2016,08,13,02,22,16.70
2016,08,13,02,23,16.70
2016,08,13,02,24,16.80
2016,08,13,02,25,16.80
2016,08,13,02,26,16.90
2016,08,13,02,27,16.90
2016,08,13,02,28,17.00
2016,08,13,02,29,17.00
2016,08,13,02,30,17.00
2016,08,13,02,31,17.10
2016,08,13,02,32,17.10
2016,08,13,02,33,17.10
2016,08,13,02,34,17.10
2016,08,13,02,35,17.10
2016,08,13,02,36,17.10
2016,08,13,02,37,17.10
2016,08,13,02,38,17.10
2016,08,13,02,39,17.20
2016,08,13,02,40,17.20
2016,08,13,02,41,17.20
2016,08,13,02,42,17.20
2016,08,13,02,43,17.20
2016,08,13,02,44,17.20
2016,08,13,02,45,17.20
2016,08,13,02,46,17.20
2016,08,13,02,47,17.20
2016,08,13,02,48,17.20
2016,08,13,02,49,17.30
2016,08,13,02,50,17.30
2016,08,13,02,51,17.30
2016,08,13,02,52,17.30
2016,08,13,02,53,17.30
2016,08,13,02,54,17.30
2016,08,13,02,55,17.20
2016,08,13,02,56,17.20
2016,08,13,02,57,17.20
2016,08,13,02,58,17.20
2016,08,13,02,59,17.10
2016,08,13,03,00,17.10
2016,08,13,03,01,17.10
2016,08,13,03,02,17.10
2016,08,13,03,03,17.10
2016,08,13,03,04,17.10
2016,08,13,03,05,17.10
2016,08,13,03,06,17.00
2016,08,13,03,07,17.00
2016,08,13,03,08,17.00
2016,08,13,03,09,17.10
2016,08,13,03,10,17.10
2016,08,13,03,11,17.10
2016,08,13,03,12,17.10
2016,08,13,03,13,17.10
2016,08,13,03,14,17.10
2016,08,13,03,15,17.10
2016,08,13,03,16,17.10
2016,08,13,03,17,17.10
2016,08,13,03,18,17.10
2016,08,13,03,19,17.20
2016,08,13,03,20,17.20
2016,08,13,03,21,17.30
2016,08,13,03,22,17.30
2016,08,13,03,23,17.30
2016,08,13,03,24,17.30
2016,08,13,03,25,17.30
2016,08,13,03,26,17.40
2016,08,13,03,27,17.40
2016,08,13,03,28,17.40
2016,08,13,03,29,17.40
2016,08,13,03,30,17.40
2016,08,13,03,31,17.40
2016,08,13,03,32,17.40
2016,08,13,03,33,17.30
2016,08,13,03,34,17.30
2016,08,13,03,35,17.30
2016,08,13,03,36,17.30
2016,08,13,03,37,17.20
2016,08,13,03,38,17.10
2016,08,13,03,39,17.10
2016,08,13,03,40,17.00
2016,08,13,03,41,17.00
2016,08,13,03,42,17.00
2016,08,13,03,43,17.00
2016,08,13,03,44,17.00
2016,08,13,03,45,17.00
2016,08,13,03,46,16.90
2016,08,13,03,47,16.90
2016,08,13,03,48,16.80
2016,08,13,03,49,16.70
2016,08,13,03,50,16.60
2016,08,13,03,51,16.50
2016,08,13,03,52,16.40
2016,08,13,03,53,16.40
2016,08,13,03,54,16.40
2016,08,13,03,55,16.40
2016,08,13,03,56,16.40
2016,08,13,03,57,16.40
2016,08,13,03,58,16.40
2016,08,13,03,59,16.40
2016,08,13,04,00,16.40
2016,08,13,04,01,16.50
2016,08,13,04,02,16.40
2016,08,13,04,03,16.40
2016,08,13,04,04,16.40
2016,08,13,04,05,16.40
2016,08,13,04,06,16.40
2016,08,13,04,07,16.40
2016,08,13,04,08,16.40
2016,08,13,04,09,16.40
2016,08,13,04,10,16.40
2016,08,13,04,11,16.40
2016,08,13,04,12,16.50
2016,08,13,04,13,16.60
2016,08,13,04,14,16.60
2016,08,13,04,15,16.60
2016,08,13,04,16,16.60
2016,08,13,04,17,16.60
2016,08,13,04,18,16.60
2016,08,13,04,19,16.60
2016,08,13,04,20,16.60
2016,08,13,04,21,16.50
2016,08,13,04,22,16.40
2016,08,13,04,23,16.40
2016,08,13,04,24,16.40
2016,08,13,04,25,16.40
2016,08,13,04,26,16.40
2016,08,13,04,27,16.40
2016,08,13,04,28,16.60
2016,08,13,04,29,16.60
2016,08,13,04,30,16.60
2016,08,13,04,31,16.70
2016,08,13,04,32,16.70
2016,08,13,04,33,16.70
2016,08,13,04,34,16.70
2016,08,13,04,35,16.70
2016,08,13,04,36,16.70
2016,08,13,04,37,16.70
2016,08,13,04,38,16.70
2016,08,13,04,39,16.70
2016,08,13,04,40,16.70
2016,08,13,04,41,16.70
2016,08,13,04,42,16.70
2016,08,13,04,43,16.70
2016,08,13,04,44,16.70
2016,08,13,04,45,16.70
2016,08,13,04,46,16.70
2016,08,13,04,47,16.70
2016,08,13,04,48,16.70
2016,08,13,04,49,16.70
2016,08,13,04,50,16.70
2016,08,13,04,51,16.70
2016,08,13,04,52,16.70
2016,08,13,04,53,16.70
2016,08,13,04,54,16.60
2016,08,13,04,55,16.60
2016,08,13,04,56,16.60
2016,08,13,04,57,16.60
2016,08,13,04,58,16.50
2016,08,13,04,59,16.40
2016,08,13,05,00,16.50
2016,08,13,05,01,16.60
2016,08,13,05,02,16.60
2016,08,13,05,03,16.60
2016,08,13,05,04,16.60
2016,08,13,05,05,16.60
2016,08,13,05,06,16.60
2016,08,13,05,07,16.60
2016,08,13,05,08,16.60
2016,08,13,05,09,16.70
2016,08,13,05,10,16.70
2016,08,13,05,11,16.70
2016,08,13,05,12,16.70
2016,08,13,05,13,16.70
2016,08,13,05,14,16.70
2016,08,13,05,15,16.60
2016,08,13,05,16,16.60
2016,08,13,05,17,16.60
2016,08,13,05,18,16.50
2016,08,13,05,19,16.40
2016,08,13,05,20,16.40
2016,08,13,05,21,16.40
2016,08,13,05,22,16.40
2016,08,13,05,23,16.40
2016,08,13,05,24,16.40
2016,08,13,05,25,16.40
2016,08,13,05,26,16.40
2016,08,13,05,27,16.40
2016,08,13,05,28,16.40
2016,08,13,05,29,16.40
2016,08,13,05,30,16.40
2016,08,13,05,31,16.40
2016,08,13,05,32,16.40
2016,08,13,05,33,16.40
2016,08,13,05,34,16.40
2016,08,13,05,35,16.40
2016,08,13,05,36,16.40
2016,08,13,05,37,16.40
2016,08,13,05,38,16.40
2016,08,13,05,39,16.40
2016,08,13,05,40,16.40
2016,08,13,05,41,16.40
2016,08,13,05,42,16.30
2016,08,13,05,43,16.30
2016,08,13,05,44,16.30
2016,08,13,05,45,16.20
2016,08,13,05,46,16.20
2016,08,13,05,47,16.20
2016,08,13,05,48,16.20
2016,08,13,05,49,16.10
2016,08,13,05,50,16.10
2016,08,13,05,51,16.20
2016,08,13,05,52,16.20
2016,08,13,05,53,16.20
2016,08,13,05,54,16.20
2016,08,13,05,55,16.20
2016,08,13,05,56,16.20
2016,08,13,05,57,16.10
2016,08,13,05,58,16.10
2016,08,13,05,59,16.00
2016,08,13,06,00,15.90
2016,08,13,06,01,15.80
2016,08,13,06,02,15.80
2016,08,13,06,03,15.80
2016,08,13,06,04,15.80
2016,08,13,06,05,15.80
2016,08,13,06,06,15.80
2016,08,13,06,07,15.90
2016,08,13,06,08,16.00
2016,08,13,06,09,16.10
2016,08,13,06,10,16.10
2016,08,13,06,11,16.10
2016,08,13,06,12,16.10
2016,08,13,06,13,16.10
2016,08,13,06,14,16.10
2016,08,13,06,15,16.10
2016,08,13,06,16,16.10
2016,08,13,06,17,16.00
2016,08,13,06,18,15.90
2016,08,13,06,19,15.90
2016,08,13,06,20,15.80
2016,08,13,06,21,15.80
2016,08,13,06,22,15.80
2016,08,13,06,23,15.80
2016,08,13,06,24,15.90
2016,08,13,06,25,15.90
2016,08,13,06,26,15.90
2016,08,13,06,27,16.00
2016,08,13,06,28,16.10
2016,08,13,06,29,16.10
2016,08,13,06,30,16.10
2016,08,13,06,31,16.10
2016,08,13,06,32,16.10
2016,08,13,06,33,16.10
2016,08,13,06,34,16.00
2016,08,13,06,35,15.90
2016,08,13,06,36,15.90
2016,08,13,06,37,15.90
2016,08,13,06,38,15.80
2016,08,13,06,39,15.70
2016,08,13,06,40,15.70
2016,08,13,06,41,15.70
2016,08,13,06,42,15.70
2016,08,13,06,43,15.70
2016,08,13,06,44,15.70
2016,08,13,06,45,15.70
2016,08,13,06,46,15.80
2016,08,13,06,47,15.80
2016,08,13,06,48,15.80
2016,08,13,06,49,15.80
2016,08,13,06,50,15.80
2016,08,13,06,51,15.90
2016,08,13,06,52,15.90
2016,08,13,06,53,16.00
2016,08,13,06,54,16.10
2016,08,13,06,55,16.10
2016,08,13,06,56,16.20
2016,08,13,06,57,16.30
2016,08,13,06,58,16.30
2016,08,13,06,59,16.40
2016,08,13,07,00,16.40
2016,08,13,07,01,16.50
2016,08,13,07,02,16.60
2016,08,13,07,03,16.80
2016,08,13,07,04,16.80
2016,08,13,07,05,16.90
2016,08,13,07,06,16.90
2016,08,13,07,07,17.00
2016,08,13,07,08,17.00
2016,08,13,07,09,17.10
2016,08,13,07,10,17.10
2016,08,13,07,11,17.20
2016,08,13,07,12,17.30
2016,08,13,07,13,17.30
2016,08,13,07,14,17.30
2016,08,13,07,15,17.30
2016,08,13,07,16,17.30
2016,08,13,07,17,17.40
2016,08,13,07,18,17.40
2016,08,13,07,19,17.40
2016,08,13,07,20,17.40
2016,08,13,07,21,17.40
2016,08,13,07,22,17.50
2016,08,13,07,23,17.60
2016,08,13,07,24,17.60
2016,08,13,07,25,17.70
2016,08,13,07,26,17.80
2016,08,13,07,27,17.90
2016,08,13,07,28,17.90
2016,08,13,07,29,17.90
2016,08,13,07,30,17.90
2016,08,13,07,31,17.90
2016,08,13,07,32,17.90
2016,08,13,07,33,17.90
2016,08,13,07,34,17.90
2016,08,13,07,35,17.90
2016,08,13,07,36,17.90
2016,08,13,07,37,17.90
2016,08,13,07,38,17.90
2016,08,13,07,39,17.90
2016,08,13,07,40,17.90
2016,08,13,07,41,18.00
2016,08,13,07,42,18.10
2016,08,13,07,43,18.20
2016,08,13,07,44,18.30
2016,08,13,07,45,18.50
2016,08,13,07,46,18.60
2016,08,13,07,47,18.70
2016,08,13,07,48,18.80
2016,08,13,07,49,18.80
2016,08,13,07,50,18.90
2016,08,13,07,51,18.90
2016,08,13,07,52,18.90
2016,08,13,07,53,18.90
2016,08,13,07,54,18.90
2016,08,13,07,55,19.00
2016,08,13,07,56,19.10
2016,08,13,07,57,19.20
2016,08,13,07,58,19.20
2016,08,13,07,59,19.30
2016,08,13,08,00,19.40
2016,08,13,08,01,19.40
2016,08,13,08,02,19.40
2016,08,13,08,03,19.40
2016,08,13,08,04,19.40
2016,08,13,08,05,19.50
2016,08,13,08,06,19.50
2016,08,13,08,07,19.50
2016,08,13,08,08,19.50
2016,08,13,08,09,19.50
2016,08,13,08,10,19.50
2016,08,13,08,11,19.50
2016,08,13,08,12,19.40
2016,08,13,08,13,19.50
2016,08,13,08,14,19.50
2016,08,13,08,15,19.60
2016,08,13,08,16,19.60
2016,08,13,08,17,19.60
2016,08,13,08,18,19.60
2016,08,13,08,19,19.60
2016,08,13,08,20,19.60
2016,08,13,08,21,19.50
2016,08,13,08,22,19.40
2016,08,13,08,23,19.30
2016,08,13,08,24,19.00
2016,08,13,08,25,18.80
2016,08,13,08,26,18.60
2016,08,13,08,27,18.50
2016,08,13,08,28,18.30
2016,08,13,08,29,18.20
2016,08,13,08,30,18.20
2016,08,13,08,31,18.20
2016,08,13,08,32,18.20
2016,08,13,08,33,18.20
2016,08,13,08,34,18.00
2016,08,13,08,35,17.90
2016,08,13,08,36,17.90
2016,08,13,08,37,17.80
2016,08,13,08,38,17.70
2016,08,13,08,39,17.80
2016,08,13,08,40,17.80
2016,08,13,08,41,17.80
2016,08,13,08,42,17.90
2016,08,13,08,43,17.90
2016,08,13,08,44,17.90
2016,08,13,08,45,17.90
2016,08,13,08,46,17.90
2016,08,13,08,47,18.00
2016,08,13,08,48,18.10
2016,08,13,08,49,18.10
2016,08,13,08,50,18.20
2016,08,13,08,51,18.20
2016,08,13,08,52,18.30
2016,08,13,08,53,18.40
2016,08,13,08,54,18.50
2016,08,13,08,55,18.60
2016,08,13,08,56,18.70
2016,08,13,08,57,18.80
2016,08,13,08,58,18.90
2016,08,13,08,59,18.90
2016,08,13,09,00,19.00
2016,08,13,09,01,19.10
2016,08,13,09,02,19.10
2016,08,13,09,03,19.10
2016,08,13,09,04,19.20
2016,08,13,09,05,19.20
2016,08,13,09,06,19.20
2016,08,13,09,07,19.30
2016,08,13,09,08,19.30
2016,08,13,09,09,19.30
2016,08,13,09,10,19.30
2016,08,13,09,11,19.20
2016,08,13,09,12,19.10
2016,08,13,09,13,19.10
2016,08,13,09,14,19.00
2016,08,13,09,15,18.90
2016,08,13,09,16,18.90
2016,08,13,09,17,18.90
2016,08,13,09,18,18.80
2016,08,13,09,19,18.70
2016,08,13,09,20,18.70
2016,08,13,09,21,18.60
2016,08,13,09,22,18.60
2016,08,13,09,23,18.60
2016,08,13,09,24,18.50
2016,08,13,09,25,18.50
2016,08,13,09,26,18.40
2016,08,13,09,27,18.30
2016,08,13,09,28,18.30
2016,08,13,09,29,18.20
2016,08,13,09,30,18.20
2016,08,13,09,31,18.20
2016,08,13,09,32,18.10
2016,08,13,09,33,18.10
2016,08,13,09,34,18.00
2016,08,13,09,35,17.90
2016,08,13,09,36,17.90
2016,08,13,09,37,17.90
2016,08,13,09,38,17.80
2016,08,13,09,39,17.80
2016,08,13,09,40,17.80
2016,08,13,09,41,17.80
2016,08,13,09,42,17.80
2016,08,13,09,43,17.70
2016,08,13,09,44,17.70
2016,08,13,09,45,17.70
2016,08,13,09,46,17.60
2016,08,13,09,47,17.60
2016,08,13,09,48,17.60
2016,08,13,09,49,17.60
2016,08,13,09,50,17.60
2016,08,13,09,51,17.70
2016,08,13,09,52,17.70
2016,08,13,09,53,17.80
2016,08,13,09,54,17.80
2016,08,13,09,55,17.90
2016,08,13,09,56,18.00
2016,08,13,09,57,18.10
2016,08,13,09,58,18.20
2016,08,13,09,59,18.30
2016,08,13,10,00,18.40
2016,08,13,10,01,18.50
2016,08,13,10,02,18.60
2016,08,13,10,03,18.70
2016,08,13,10,04,18.80
2016,08,13,10,05,18.90
2016,08,13,10,06,19.00
2016,08,13,10,07,19.10
2016,08,13,10,08,19.10
2016,08,13,10,09,19.20
2016,08,13,10,10,19.20
2016,08,13,10,11,19.30
2016,08,13,10,12,19.30
2016,08,13,10,13,19.40
2016,08,13,10,14,19.40
2016,08,13,10,15,19.40
2016,08,13,10,16,19.60
2016,08,13,10,17,19.60
2016,08,13,10,18,19.70
2016,08,13,10,19,19.80
2016,08,13,10,20,19.80
2016,08,13,10,21,19.90
2016,08,13,10,22,19.90
2016,08,13,10,23,20.10
2016,08,13,10,24,20.20
2016,08,13,10,25,20.30
2016,08,13,10,26,20.30
2016,08,13,10,27,20.40
2016,08,13,10,28,20.50
2016,08,13,10,29,20.60
2016,08,13,10,30,20.60
2016,08,13,10,31,20.70
2016,08,13,10,32,20.70
2016,08,13,10,33,20.80
2016,08,13,10,34,20.90
2016,08,13,10,35,21.10
2016,08,13,10,36,21.30
2016,08,13,10,37,21.30
2016,08,13,10,38,21.40
2016,08,13,10,39,21.40
2016,08,13,10,40,21.50
2016,08,13,10,41,21.50
2016,08,13,10,42,21.60
2016,08,13,10,43,21.50
2016,08,13,10,44,21.50
2016,08,13,10,45,21.60
2016,08,13,10,46,21.60
2016,08,13,10,47,21.70
2016,08,13,10,48,21.80
2016,08,13,10,49,21.80
2016,08,13,10,50,21.80
2016,08,13,10,51,21.90
2016,08,13,10,52,21.90
2016,08,13,10,53,21.90
2016,08,13,10,54,21.90
2016,08,13,10,55,21.90
2016,08,13,10,56,21.90
2016,08,13,10,57,21.80
2016,08,13,10,58,21.80
2016,08,13,10,59,21.70
2016,08,13,11,00,21.70
2016,08,13,11,01,21.70
2016,08,13,11,02,21.80
2016,08,13,11,03,21.80
2016,08,13,11,04,21.90
2016,08,13,11,05,21.90
2016,08,13,11,06,21.90
2016,08,13,11,07,21.80
2016,08,13,11,08,21.70
2016,08,13,11,09,21.60
2016,08,13,11,10,21.70
2016,08,13,11,11,21.70
2016,08,13,11,12,21.60
2016,08,13,11,13,21.60
2016,08,13,11,14,21.60
2016,08,13,11,15,21.60
2016,08,13,11,16,21.60
2016,08,13,11,17,21.70
2016,08,13,11,18,21.70
2016,08,13,11,19,21.80
2016,08,13,11,20,21.80
2016,08,13,11,21,21.90
2016,08,13,11,22,21.90
2016,08,13,11,23,21.90
2016,08,13,11,24,21.90
2016,08,13,11,25,21.90
2016,08,13,11,26,22.00
2016,08,13,11,27,22.10
2016,08,13,11,28,22.10
2016,08,13,11,29,22.10
2016,08,13,11,30,22.20
2016,08,13,11,31,22.20
2016,08,13,11,32,22.30
2016,08,13,11,33,22.50
2016,08,13,11,34,22.60
2016,08,13,11,35,22.60
2016,08,13,11,36,22.60
2016,08,13,11,37,22.60
2016,08,13,11,38,22.50
2016,08,13,11,39,22.40
2016,08,13,11,40,22.40
2016,08,13,11,41,22.40
2016,08,13,11,42,22.40
2016,08,13,11,43,22.30
2016,08,13,11,44,22.20
2016,08,13,11,45,22.20
2016,08,13,11,46,22.20
2016,08,13,11,47,22.10
2016,08,13,11,48,22.00
2016,08,13,11,49,22.00
2016,08,13,11,50,22.00
2016,08,13,11,51,22.00
2016,08,13,11,52,22.00
2016,08,13,11,53,21.90
2016,08,13,11,54,21.90
2016,08,13,11,55,22.00
2016,08,13,11,56,22.00
2016,08,13,11,57,22.00
2016,08,13,11,58,22.00
2016,08,13,11,59,21.90
2016,08,13,12,00,21.80
2016,08,13,12,01,21.70
2016,08,13,12,02,21.70
2016,08,13,12,03,21.70
2016,08,13,12,04,21.70
2016,08,13,12,05,21.70
2016,08,13,12,06,21.60
2016,08,13,12,07,21.70
2016,08,13,12,08,21.80
2016,08,13,12,09,21.80
2016,08,13,12,10,21.80
2016,08,13,12,11,21.80
2016,08,13,12,12,21.80
2016,08,13,12,13,21.80
2016,08,13,12,14,21.80
2016,08,13,12,15,21.70
2016,08,13,12,16,21.70
2016,08,13,12,17,21.70
2016,08,13,12,18,21.70
2016,08,13,12,19,21.60
2016,08,13,12,20,21.60
2016,08,13,12,21,21.60
2016,08,13,12,22,21.40
2016,08,13,12,23,21.40
2016,08,13,12,24,21.50
2016,08,13,12,25,21.60
2016,08,13,12,26,21.60
2016,08,13,12,27,21.60
2016,08,13,12,28,21.60
2016,08,13,12,29,21.60
2016,08,13,12,30,21.60
2016,08,13,12,31,21.60
2016,08,13,12,32,21.60
2016,08,13,12,33,21.60
2016,08,13,12,34,21.40
2016,08,13,12,35,21.40
2016,08,13,12,36,21.30
2016,08,13,12,37,21.30
2016,08,13,12,38,21.30
2016,08,13,12,39,21.30
2016,08,13,12,40,21.30
2016,08,13,12,41,21.30
2016,08,13,12,42,21.30
2016,08,13,12,43,21.30
2016,08,13,12,44,21.30
2016,08,13,12,45,21.30
2016,08,13,12,46,21.30
2016,08,13,12,47,21.30
2016,08,13,12,48,21.20
2016,08,13,12,49,21.20
2016,08,13,12,50,21.30
2016,08,13,12,51,21.30
2016,08,13,12,52,21.40
2016,08,13,12,53,21.40
2016,08,13,12,54,21.40
2016,08,13,12,55,21.40
2016,08,13,12,56,21.40
2016,08,13,12,57,21.40
2016,08,13,12,58,21.40
2016,08,13,12,59,21.40
2016,08,13,13,00,21.30
2016,08,13,13,01,21.50
2016,08,13,13,02,21.60
2016,08,13,13,03,21.60
2016,08,13,13,04,21.50
2016,08,13,13,05,21.40
2016,08,13,13,06,21.40
2016,08,13,13,07,21.40
2016,08,13,13,08,21.40
2016,08,13,13,09,21.40
2016,08,13,13,10,21.50
2016,08,13,13,11,21.50
2016,08,13,13,12,21.40
2016,08,13,13,13,21.40
2016,08,13,13,14,21.40
2016,08,13,13,15,21.40
2016,08,13,13,16,21.50
2016,08,13,13,17,21.60
2016,08,13,13,18,21.80
2016,08,13,13,19,21.90
2016,08,13,13,20,21.90
2016,08,13,13,21,22.00
2016,08,13,13,22,22.10
2016,08,13,13,23,22.20
2016,08,13,13,24,22.20
2016,08,13,13,25,22.20
2016,08,13,13,26,22.00
2016,08,13,13,27,22.00
2016,08,13,13,28,22.00
2016,08,13,13,29,22.10
2016,08,13,13,30,22.10
2016,08,13,13,31,22.10
2016,08,13,13,32,22.20
2016,08,13,13,33,22.20
2016,08,13,13,34,22.10
2016,08,13,13,35,22.00
2016,08,13,13,36,21.90
2016,08,13,13,37,21.90
2016,08,13,13,38,21.80
2016,08,13,13,39,21.70
2016,08,13,13,40,21.70
2016,08,13,13,41,21.70
2016,08,13,13,42,21.60
2016,08,13,13,43,21.60
2016,08,13,13,44,21.60
2016,08,13,13,45,21.70
2016,08,13,13,46,21.80
2016,08,13,13,47,21.90
2016,08,13,13,48,21.90
2016,08,13,13,49,21.90
2016,08,13,13,50,21.90
2016,08,13,13,51,22.00
2016,08,13,13,52,22.00
2016,08,13,13,53,22.10
2016,08,13,13,54,22.10
2016,08,13,13,55,22.00
2016,08,13,13,56,22.00
2016,08,13,13,57,22.00
2016,08,13,13,58,22.00
2016,08,13,13,59,22.00
2016,08,13,14,00,21.90
2016,08,13,14,01,21.80
2016,08,13,14,02,21.70
2016,08,13,14,03,21.80
2016,08,13,14,04,21.70
2016,08,13,14,05,21.70
2016,08,13,14,06,21.70
2016,08,13,14,07,21.70
2016,08,13,14,08,21.70
2016,08,13,14,09,21.70
2016,08,13,14,10,21.80
2016,08,13,14,11,21.80
2016,08,13,14,12,21.80
2016,08,13,14,13,21.90
2016,08,13,14,14,22.00
2016,08,13,14,15,22.10
2016,08,13,14,16,22.10
2016,08,13,14,17,22.00
2016,08,13,14,18,21.90
2016,08,13,14,19,21.80
2016,08,13,14,20,21.80
2016,08,13,14,21,21.90
2016,08,13,14,22,22.00
2016,08,13,14,23,22.10
2016,08,13,14,24,22.10
2016,08,13,14,25,22.00
2016,08,13,14,26,22.10
2016,08,13,14,27,22.20
2016,08,13,14,28,22.30
2016,08,13,14,29,22.30
2016,08,13,14,30,22.30
2016,08,13,14,31,22.20
2016,08,13,14,32,22.20
2016,08,13,14,33,22.20
2016,08,13,14,34,22.10
2016,08,13,14,35,22.10
2016,08,13,14,36,22.20
2016,08,13,14,37,22.20
2016,08,13,14,38,22.10
2016,08,13,14,39,22.10
2016,08,13,14,40,22.10
2016,08,13,14,41,22.00
2016,08,13,14,42,22.10
2016,08,13,14,43,22.20
2016,08,13,14,44,22.20
2016,08,13,14,45,22.10
2016,08,13,14,46,22.10
2016,08,13,14,47,22.00
2016,08,13,14,48,22.00
2016,08,13,14,49,21.90
2016,08,13,14,50,21.90
2016,08,13,14,51,22.00
2016,08,13,14,52,22.00
2016,08,13,14,53,22.10
2016,08,13,14,54,22.10
2016,08,13,14,55,22.20
2016,08,13,14,56,22.20
2016,08,13,14,57,22.20
2016,08,13,14,58,22.20
2016,08,13,14,59,22.20
2016,08,13,15,00,22.30
2016,08,13,15,01,22.40
2016,08,13,15,02,22.40
2016,08,13,15,03,22.30
2016,08,13,15,04,22.30
2016,08,13,15,05,22.30
2016,08,13,15,06,22.30
2016,08,13,15,07,22.40
2016,08,13,15,08,22.50
2016,08,13,15,09,22.50
2016,08,13,15,10,22.50
2016,08,13,15,11,22.50
2016,08,13,15,12,22.40
2016,08,13,15,13,22.50
2016,08,13,15,14,22.50
2016,08,13,15,15,22.50
2016,08,13,15,16,22.40
2016,08,13,15,17,22.30
2016,08,13,15,18,22.30
2016,08,13,15,19,22.30
2016,08,13,15,20,22.30
2016,08,13,15,21,22.30
2016,08,13,15,22,22.40
2016,08,13,15,23,22.40
2016,08,13,15,24,22.50
2016,08,13,15,25,22.60
2016,08,13,15,26,22.60
2016,08,13,15,27,22.80
2016,08,13,15,28,22.90
2016,08,13,15,29,23.00
2016,08,13,15,30,23.10
2016,08,13,15,31,23.00
2016,08,13,15,32,23.00
2016,08,13,15,33,23.00
2016,08,13,15,34,22.90
2016,08,13,15,35,22.90
2016,08,13,15,36,22.90
2016,08,13,15,37,22.90
2016,08,13,15,38,22.70
2016,08,13,15,39,22.70
2016,08,13,15,40,22.70
2016,08,13,15,41,22.60
2016,08,13,15,42,22.60
2016,08,13,15,43,22.60
2016,08,13,15,44,22.60
2016,08,13,15,45,22.70
2016,08,13,15,46,22.60
2016,08,13,15,47,22.40
2016,08,13,15,48,22.30
2016,08,13,15,49,22.10
2016,08,13,15,50,22.00
2016,08,13,15,51,21.90
2016,08,13,15,52,21.90
2016,08,13,15,53,21.70
2016,08,13,15,54,21.70
2016,08,13,15,55,21.70
2016,08,13,15,56,21.50
2016,08,13,15,57,21.30
2016,08,13,15,58,21.30
2016,08,13,15,59,21.20
2016,08,13,16,00,21.20
2016,08,13,16,01,21.30
2016,08,13,16,02,21.30
2016,08,13,16,03,21.40
2016,08,13,16,04,21.50
2016,08,13,16,05,21.60
2016,08,13,16,06,21.60
2016,08,13,16,07,21.50
2016,08,13,16,08,21.40
2016,08,13,16,09,21.40
2016,08,13,16,10,21.30
2016,08,13,16,11,21.20
2016,08,13,16,12,21.00
2016,08,13,16,13,20.90
2016,08,13,16,14,20.80
2016,08,13,16,15,20.70
2016,08,13,16,16,20.60
2016,08,13,16,17,20.50
2016,08,13,16,18,20.30
2016,08,13,16,19,20.10
2016,08,13,16,20,20.00
2016,08,13,16,21,19.80
2016,08,13,16,22,19.70
2016,08,13,16,23,19.70
2016,08,13,16,24,19.70
2016,08,13,16,25,19.80
2016,08,13,16,26,19.90
2016,08,13,16,27,20.10
2016,08,13,16,28,20.20
2016,08,13,16,29,20.20
2016,08,13,16,30,20.30
2016,08,13,16,31,20.50
2016,08,13,16,32,20.70
2016,08,13,16,33,20.90
2016,08,13,16,34,21.10
2016,08,13,16,35,21.20
2016,08,13,16,36,21.40
2016,08,13,16,37,21.50
2016,08,13,16,38,21.60
2016,08,13,16,39,21.70
2016,08,13,16,40,21.90
2016,08,13,16,41,22.00
2016,08,13,16,42,22.10
2016,08,13,16,43,22.20
2016,08,13,16,44,22.30
2016,08,13,16,45,22.40
2016,08,13,16,46,22.60
2016,08,13,16,47,22.70
2016,08,13,16,48,22.80
2016,08,13,16,49,22.90
2016,08,13,16,50,23.00
2016,08,13,16,51,23.10
2016,08,13,16,52,23.30
2016,08,13,16,53,23.40
2016,08,13,16,54,23.50
2016,08,13,16,55,23.70
2016,08,13,16,56,24.00
2016,08,13,16,57,24.10
2016,08,13,16,58,24.40
2016,08,13,16,59,24.50
2016,08,13,17,00,24.70
2016,08,13,17,01,24.80
2016,08,13,17,02,24.80
2016,08,13,17,03,24.90
2016,08,13,17,04,25.00
2016,08,13,17,05,25.00
2016,08,13,17,06,25.10
2016,08,13,17,07,25.10
2016,08,13,17,08,25.20
2016,08,13,17,09,25.20
2016,08,13,17,10,25.20
2016,08,13,17,11,25.20
2016,08,13,17,12,25.10
2016,08,13,17,13,25.00
2016,08,13,17,14,25.00
2016,08,13,17,15,25.00
2016,08,13,17,16,25.00
2016,08,13,17,17,25.00
2016,08,13,17,18,25.00
2016,08,13,17,19,25.00